Regional Weather Roundup
Issued by NWS

Home | Current Version | Previous Version | Text Only | Print | Product List | Glossary Off
Versions: 1 2 3 4 5 6 7 8 9 10 11 12 13 14 15 16 17 18 19 20 21 22 23 24 25 26 27 28 29 30 31 32 33 34 35 36 37 38 39 40 41 42 43 44 45 46 47 48 49 50

000
ASUS43 KFSD 272202
RWRSD

WEATHER ROUNDUP FOR SOUTH DAKOTA
NATIONAL WEATHER SERVICE SIOUX FALLS SD
500 PM CDT SUN JUL 27 2014

NOTE: "FAIR" INDICATES FEW OR NO CLOUDS BELOW 12,000 FEET WITH NO
SIGNIFICANT WEATHER AND/OR OBSTRUCTIONS TO VISIBILITY.


SDZ001>005-009-010-012>017-272300-
NORTHWEST AND NORTH CENTRAL SOUTH DAKOTA

CITY           SKY/WX    TMP DP  RH WIND       PRES   REMARKS
BUFFALO          N/A     77  51  40 CALM      30.22F
FAITH            N/A     77  53  43 N14       30.26F
MOBRIDGE       SUNNY     73  54  51 N14G22    30.22S
$$

SDZ012>016-024>037-041>051-057-063-072>074-272300-
SOUTHWEST AND SOUTH CENTRAL SOUTH DAKOTA

CITY           SKY/WX    TMP DP  RH WIND       PRES   REMARKS
RAPID CTY ARPT SUNNY     82  48  30 NE8       30.28S
PIERRE         MOSUNNY   77  54  44 N15       30.21F
CUSTER         SUNNY     74  50  42 E8        30.39S
ELLSWORTH AFB  SUNNY     82  46  28 N15       30.28S
PHILIP         SUNNY     83  52  34 N15G26    30.23S
PINE RIDGE     SUNNY     81  51  35 NE5       30.28F
WINNER         FAIR      82  48  30 N17       30.21S
$$

SDZ004>011-016>023-039-040-272300-
NORTHEAST SOUTH DAKOTA

CITY           SKY/WX    TMP DP  RH WIND       PRES   REMARKS
ABERDEEN       CLOUDY    67  55  65 N18       30.21R
WATERTOWN      CLOUDY    66  57  72 NW15      30.17S
SISSETON         N/A     65  57  75 N14       30.16R
$$

SDZ017-020-022-023-036>040-048>070-272300-
SOUTHEAST SOUTH DAKOTA

CITY           SKY/WX    TMP DP  RH WIND       PRES   REMARKS
SIOUX FALLS    CLOUDY    70  56  61 N22       30.16R
HURON          PTSUNNY   70  55  59 N17       30.19S
CHAMBERLAIN    SUNNY     77  55  47 N14G22    30.20S
MITCHELL       MOSUNNY   73  58  59 N14G25    30.18S
YANKTON        MOSUNNY   75  59  57 NW20      30.15S
$$

ABBREVIATIONS USED IN REMARKS
   TC - TEMPERATURE IN CELSIUS
  WCI - WIND CHILL INDEX
   HX - HEAT INDEX
  VSB - VISIBILITY




USA.gov is the U.S. government's official web portal to all federal, state and local government web resources and services.